Date String (YYYY-MM-DD hh:mm:ss) UTC,Instrument flags,Ambient pressure (hPa),Sample flow (lpm),Bypass flow (lpm),Sample temperature (°C),Ambient temperature (°C),ASC tube jacket temperature (°C),LED temperature (°C),Box temperature (°C),Sample RH (%),Span deviation,Mass concentration (μg/m³),Mass concentration (μg/m³),Mass concentration (μg/m³)
DateTimeUTC,F1_M11,P_M11,Q1_M11,Q2_M11,T1_M11,T2_M11,T3_M11,T4_M11,T5_M11,U1_M11,ZSPAN_M11,X0_M11,X2_M11,X1_M11
2021-10-20 06:00:00,,0827.9,4.98,0.00,26.4,25.5,00.0,35.6,28.1,17.4,0000.0,0006.46,0002.48,0001.69
2021-10-20 06:01:00,,0827.9,5.01,0.00,26.4,25.4,00.0,35.6,28.1,17.4,0000.0,0006.51,0002.44,0001.68
2021-10-20 06:02:00,,0828.0,5.00,0.00,26.3,25.4,00.0,35.6,28.1,17.5,0000.0,0006.44,0002.44,0001.68
2021-10-20 06:03:00,,0828.1,5.00,0.00,26.3,25.3,00.0,35.5,28.0,17.5,0000.0,0006.55,0002.45,0001.68
2021-10-20 06:04:00,,0828.1,5.01,0.00,26.3,25.3,00.0,35.5,28.0,17.5,0000.0,0006.57,0002.42,0001.67
2021-10-20 06:05:00,,0828.0,4.99,0.00,26.2,25.3,00.0,35.5,28.0,17.5,0000.0,0006.96,0002.49,0001.67
2021-10-20 06:06:00,,0828.0,5.00,0.00,26.2,25.3,00.0,35.5,28.0,17.6,0000.0,0006.78,0002.54,0001.68
2021-10-20 06:07:00,,0827.9,5.00,0.00,26.2,25.3,00.0,35.5,28.0,17.6,0000.0,0006.89,0002.46,0001.68
2021-10-20 06:08:00,,0827.9,5.01,0.00,26.2,25.3,00.0,35.5,28.0,17.6,0000.0,0006.74,0002.45,0001.70
2021-10-20 06:09:00,,0827.9,4.99,0.00,26.2,25.3,00.0,35.5,28.0,17.6,0000.0,0006.74,0002.43,0001.71
2021-10-20 06:10:00,,0827.9,5.01,0.00,26.2,25.3,00.0,35.4,28.0,17.5,0000.0,0007.16,0002.45,0001.73
2021-10-20 06:11:00,,0827.9,4.99,0.00,26.2,25.3,00.0,35.4,27.9,17.6,0000.0,0007.63,0002.53,0001.76
2021-10-20 06:12:00,,0827.9,5.01,0.00,26.1,25.3,00.0,35.4,27.9,17.6,0000.0,0007.73,0002.65,0001.80
2021-10-20 06:13:00,,0828.0,5.00,0.00,26.1,25.2,00.0,35.4,27.8,17.7,0000.0,0007.92,0002.77,0001.83
2021-10-20 06:14:00,,0828.0,5.00,0.00,26.1,25.2,00.0,35.3,27.8,17.7,0000.0,0007.85,0002.77,0001.84
2021-10-20 06:15:00,,0827.9,4.99,0.00,26.0,25.2,00.0,35.3,27.8,17.7,0000.0,0007.63,0002.76,0001.86
2021-10-20 06:16:00,,0828.0,5.00,0.00,26.0,25.2,00.0,35.3,27.7,17.7,0000.0,0007.43,0002.70,0001.87
2021-10-20 06:17:00,,0828.0,4.99,0.00,26.0,25.1,00.0,35.3,27.8,17.7,0000.0,0006.63,0002.73,0001.88
2021-10-20 06:18:00,,0828.0,5.01,0.00,26.0,25.1,00.0,35.3,27.7,17.7,0000.0,0006.26,0002.74,0001.89
2021-10-20 06:19:00,,0828.0,5.00,0.00,26.0,25.1,00.0,35.2,27.7,17.7,0000.0,0006.16,0002.76,0001.91
2021-10-20 06:20:00,,0828.0,4.99,0.00,26.0,25.1,00.0,35.2,27.7,17.7,0000.0,0006.38,0002.82,0001.93
2021-10-20 06:21:00,,0828.1,5.00,0.00,26.0,25.1,00.0,35.2,27.7,17.7,0000.0,0006.61,0002.87,0001.95
2021-10-20 06:22:00,,0828.1,5.02,0.00,25.9,25.1,00.0,35.2,27.7,17.7,0000.0,0006.70,0002.86,0001.96
2021-10-20 06:23:00,,0828.1,5.00,0.00,25.9,25.1,00.0,35.2,27.7,17.7,0000.0,0006.45,0002.79,0001.97
2021-10-20 06:24:00,,0828.0,5.00,0.00,25.9,25.0,00.0,35.2,27.7,17.7,0000.0,0006.24,0002.73,0001.97
2021-10-20 06:25:00,,0827.9,5.01,0.00,25.9,25.0,00.0,35.1,27.7,17.7,0000.0,0006.46,0002.79,0001.98
2021-10-20 06:26:00,,0828.0,5.00,0.00,25.9,25.0,00.0,35.1,27.7,17.8,0000.0,0006.57,0002.84,0001.99
2021-10-20 06:27:00,,0827.9,5.01,0.00,25.9,25.1,00.0,35.1,27.6,17.8,0000.0,0006.65,0002.87,0002.01
2021-10-20 06:28:00,,0827.9,5.00,0.00,25.9,25.1,00.0,35.1,27.6,17.8,0000.0,0007.73,0002.89,0002.03
2021-10-20 06:29:00,,0828.0,5.00,0.00,25.9,25.0,00.0,35.1,27.6,17.8,0000.0,0008.23,0002.96,0002.06
2021-10-20 06:30:00,,0828.1,5.00,0.00,25.8,25.0,00.0,35.1,27.6,17.8,0000.0,0008.37,0002.98,0002.07
2021-10-20 06:31:00,,0828.1,5.00,0.00,25.8,25.0,00.0,35.1,27.6,17.9,0000.0,0008.74,0003.02,0002.08
2021-10-20 06:32:00,,0828.3,5.01,0.00,25.8,25.0,00.0,35.0,27.6,17.8,0000.0,0008.47,0003.02,0002.07
2021-10-20 06:33:00,,0828.1,4.99,0.00,25.8,25.0,00.0,35.0,27.6,17.8,0000.0,0008.37,0003.02,0002.08
2021-10-20 06:34:00,,0828.1,5.01,0.00,25.8,25.0,00.0,35.0,27.7,17.8,0000.0,0008.16,0003.04,0002.09
2021-10-20 06:35:00,,0828.1,5.00,0.00,25.9,25.0,00.0,35.0,27.7,17.8,0000.0,0008.15,0003.05,0002.09
2021-10-20 06:36:00,,0828.0,4.99,0.00,25.8,25.0,00.0,35.0,27.7,17.7,0000.0,0008.26,0003.04,0002.12
2021-10-20 06:37:00,,0828.0,5.00,0.00,25.8,25.1,00.0,35.0,27.7,17.8,0000.0,0008.41,0003.03,0002.15
2021-10-20 06:38:00,,0827.9,5.00,0.00,25.8,25.0,00.0,35.0,27.6,17.8,0000.0,0008.41,0003.04,0002.17
2021-10-20 06:39:00,,0828.0,5.00,0.00,25.8,25.0,00.0,35.0,27.6,17.8,0000.0,0008.23,0003.10,0002.19
2021-10-20 06:40:00,,0828.0,4.99,0.00,25.8,25.0,00.0,35.0,27.5,17.9,0000.0,0008.42,0003.08,0002.19
2021-10-20 06:41:00,,0827.9,5.00,0.00,25.8,24.9,00.0,35.0,27.5,17.9,0000.0,0008.56,0003.09,0002.21
2021-10-20 06:42:00,,0828.0,4.99,0.00,25.7,24.9,00.0,35.0,27.5,17.9,0000.0,0008.73,0003.09,0002.22
2021-10-20 06:43:00,,0828.1,5.02,0.00,25.7,24.9,00.0,34.9,27.5,17.9,0000.0,0009.53,0003.09,0002.23
2021-10-20 06:44:00,,0828.1,5.00,0.00,25.7,24.9,00.0,34.9,27.5,18.0,0000.0,0009.75,0003.06,0002.24
2021-10-20 06:45:00,,0828.1,5.00,0.00,25.7,24.9,00.0,34.9,27.5,18.0,0000.0,0010.34,0003.04,0002.25
2021-10-20 06:46:00,,0828.1,4.99,0.00,25.7,24.8,00.0,34.9,27.5,18.0,0000.0,0010.35,0003.06,0002.27
2021-10-20 06:47:00,,0828.0,4.99,0.00,25.7,24.8,00.0,34.9,27.5,18.0,0000.0,0010.33,0003.11,0002.30
2021-10-20 06:48:00,,0828.0,5.01,0.00,25.7,24.8,00.0,34.9,27.4,18.0,0000.0,0010.53,0003.16,0002.32
2021-10-20 06:49:00,,0828.0,5.01,0.00,25.7,24.8,00.0,34.9,27.4,18.0,0000.0,0010.69,0003.17,0002.34
2021-10-20 06:50:00,,0828.0,5.01,0.00,25.6,24.8,00.0,34.9,27.4,18.0,0000.0,0010.30,0003.15,0002.35
2021-10-20 06:51:00,,0828.0,4.99,0.00,25.6,24.8,00.0,34.8,27.4,17.9,0000.0,0009.49,0003.14,0002.36
2021-10-20 06:52:00,,0828.1,4.99,0.00,25.6,24.8,00.0,34.8,27.4,17.8,0000.0,0009.20,0003.13,0002.36
2021-10-20 06:53:00,,0828.2,5.00,0.00,25.6,24.8,00.0,34.8,27.4,17.8,0000.0,0008.50,0003.11,0002.37
2021-10-20 06:54:00,,0828.2,5.01,0.00,25.6,24.8,00.0,34.8,27.4,17.9,0000.0,0007.98,0003.10,0002.38
2021-10-20 06:55:00,,0828.2,4.99,0.00,25.6,24.7,00.0,34.8,27.4,17.9,0000.0,0008.17,0003.12,0002.39
2021-10-20 06:56:00,,0828.2,5.01,0.00,25.5,24.7,00.0,34.8,27.3,17.9,0000.0,0007.81,0003.13,0002.41
2021-10-20 06:57:00,,0828.2,5.00,0.00,25.5,24.7,00.0,34.8,27.3,17.9,0000.0,0008.44,0003.15,0002.42
2021-10-20 06:58:00,,0828.2,5.00,0.00,25.5,24.5,00.0,34.8,27.2,17.9,0000.0,0008.58,0003.14,0002.41
2021-10-20 06:59:00,,0828.2,5.00,0.00,25.5,24.6,00.0,34.7,27.2,18.0,0000.0,0008.64,0003.08,0002.38
